• In Sweden
  • List of Countries
  • For 7 days
  • Water Temperature
  • Satellite Maps
  • Weather Map
  • Weather Widgets
  • user-avatar
    Login

    Hourly Weather Leicester

    Today, 22 November, Wednesday

    Time Temperature Precipitation Wind Pressure Humidity
    00:00 +13°C° 0 mm 6 mps 744 mmHg 90%
    01:00 +12°C° 0.5 mm 7 mps 743 mmHg 89%
    02:00 +12°C° 0.5 mm 8 mps 743 mmHg 88%
    03:00 +12°C° 0.5 mm 8 mps 742 mmHg 87%
    04:00 +12°C° 0 mm 8 mps 742 mmHg 86%
    05:00 +12°C° 0 mm 9 mps 741 mmHg 85%
    06:00 +12°C° 0 mm 9 mps 741 mmHg 84%
    07:00 +12°C° 0 mm 9 mps 741 mmHg 84%
    08:00 +12°C° 0 mm 9 mps 740 mmHg 83%
    09:00 +12°C° 0 mm 10 mps 740 mmHg 83%
    10:00 +12°C° 0.1 mm 10 mps 739 mmHg 82%
    11:00 +13°C° 0.1 mm 10 mps 739 mmHg 81%
    12:00 +13°C° 0.1 mm 11 mps 738 mmHg 80%
    13:00 +13°C° 0.1 mm 11 mps 737 mmHg 79%
    14:00 +13°C° 0.1 mm 11 mps 736 mmHg 78%
    15:00 +13°C° 0.1 mm 11 mps 736 mmHg 77%
    16:00 +13°C° 0.1 mm 11 mps 735 mmHg 75%
    17:00 +13°C° 0.1 mm 12 mps 734 mmHg 73%
    18:00 +13°C° 0.1 mm 12 mps 733 mmHg 71%
    19:00 +13°C° 0.3 mm 12 mps 733 mmHg 74%
    20:00 +13°C° 0.3 mm 12 mps 732 mmHg 76%
    21:00 +13°C° 0.3 mm 12 mps 732 mmHg 79%
    22:00 +13°C° 0.6 mm 11 mps 731 mmHg 80%
    23:00 +13°C° 0.6 mm 11 mps 731 mmHg 81%

    Tomorrow, 23 November, Thursday

    Time Temperature Precipitation Wind Pressure Humidity
    00:00 +12°C° 0.6 mm 10 mps 731 mmHg 83%
    01:00 +12°C° 0.5 mm 10 mps 730 mmHg 83%
    02:00 +12°C° 0.5 mm 9 mps 730 mmHg 83%
    03:00 +12°C° 0.5 mm 9 mps 730 mmHg 83%
    04:00 +11°C° 0.2 mm 9 mps 731 mmHg 82%
    05:00 +10°C° 0.2 mm 8 mps 732 mmHg 81%
    06:00 +9°C° 0.2 mm 8 mps 733 mmHg 79%
    07:00 +7°C° 0 mm 8 mps 734 mmHg 75%
    08:00 +6°C° 0 mm 9 mps 736 mmHg 72%
    09:00 +5°C° 0 mm 9 mps 737 mmHg 68%
    10:00 +6°C° 0 mm 9 mps 738 mmHg 65%
    11:00 +7°C° 0 mm 10 mps 740 mmHg 61%
    12:00 +7°C° 0 mm 10 mps 741 mmHg 58%
    13:00 +7°C° 0 mm 9 mps 742 mmHg 60%
    14:00 +8°C° 0 mm 7 mps 743 mmHg 61%
    15:00 +7°C° 0 mm 6 mps 744 mmHg 63%
    16:00 +7°C° 0 mm 5 mps 745 mmHg 65%
    17:00 +7°C° 0 mm 4 mps 745 mmHg 67%
    18:00 +7°C° 0 mm 3 mps 746 mmHg 69%
    19:00 +7°C° 0.2 mm 3 mps 746 mmHg 72%
    20:00 +7°C° 0.2 mm 2 mps 746 mmHg 75%
    21:00 +6°C° 0.2 mm 2 mps 746 mmHg 78%
    22:00 +6°C° 0.7 mm 2 mps 746 mmHg 79%
    23:00 +6°C° 0.7 mm 2 mps 746 mmHg 79%

    Day after tomorrow, 24 November, Friday

    Time Temperature Precipitation Wind Pressure Humidity
    00:00 +6°C° 0.7 mm 2 mps 746 mmHg 80%
    01:00 +5°C° 0.2 mm 2 mps 746 mmHg 79%
    02:00 +5°C° 0.2 mm 2 mps 746 mmHg 79%
    03:00 +6°C° 0.2 mm 1 mps 747 mmHg 78%
    04:00 +5°C° 0 mm 2 mps 747 mmHg 79%
    05:00 +4°C° 0 mm 2 mps 748 mmHg 81%
    06:00 +3°C° 0 mm 2 mps 748 mmHg 82%
    07:00 +3°C° 0 mm 2 mps 749 mmHg 82%
    08:00 +3°C° 0 mm 2 mps 749 mmHg 82%
    09:00 +3°C° 0 mm 2 mps 750 mmHg 81%
    10:00 +4°C° 0 mm 2 mps 750 mmHg 78%
    11:00 +5°C° 0 mm 2 mps 750 mmHg 74%
    12:00 +6°C° 0 mm 2 mps 750 mmHg 71%
    13:00 +6°C° 0.3 mm 2 mps 750 mmHg 73%
    14:00 +6°C° 0.3 mm 2 mps 750 mmHg 75%
    15:00 +7°C° 0.3 mm 1 mps 750 mmHg 78%
    16:00 +6°C° 0.2 mm 1 mps 750 mmHg 78%
    17:00 +6°C° 0.2 mm 1 mps 750 mmHg 79%
    18:00 +5°C° 0.2 mm 1 mps 751 mmHg 80%
    19:00 +5°C° 0.1 mm 1 mps 751 mmHg 80%
    20:00 +5°C° 0.1 mm 1 mps 751 mmHg 81%
    21:00 +5°C° 0.1 mm 1 mps 751 mmHg 81%
    22:00 +3°C° 0 mm 2 mps 751 mmHg 81%
    23:00 +3°C° 0 mm 2 mps 751 mmHg 81%

    25 November, Saturday

    Time Temperature Precipitation Wind Pressure Humidity
    00:00 +2°C° 0 mm 3 mps 751 mmHg 81%
    01:00 +1°C° 0 mm 3 mps 751 mmHg 79%
    02:00 +1°C° 0 mm 3 mps 751 mmHg 78%
    03:00 +1°C° 0 mm 3 mps 751 mmHg 76%
    04:00 +1°C° 0 mm 3 mps 751 mmHg 77%
    05:00 -1°C° 0 mm 4 mps 751 mmHg 77%
    06:00 -1°C° 0 mm 4 mps 751 mmHg 78%
    07:00 0°C° 0 mm 4 mps 751 mmHg 77%
    08:00 0°C° 0 mm 5 mps 752 mmHg 76%
    09:00 0°C° 0 mm 5 mps 752 mmHg 75%
    10:00 +1°C° 0 mm 6 mps 752 mmHg 71%
    11:00 +2°C° 0 mm 7 mps 752 mmHg 67%
    12:00 +2°C° 0 mm 8 mps 753 mmHg 63%
    13:00 +3°C° 0.1 mm 7 mps 753 mmHg 64%
    14:00 +3°C° 0.1 mm 7 mps 753 mmHg 66%
    15:00 +3°C° 0.1 mm 6 mps 753 mmHg 67%
    16:00 +2°C° 0 mm 6 mps 754 mmHg 69%
    17:00 +1°C° 0 mm 6 mps 754 mmHg 70%
    18:00 +1°C° 0 mm 6 mps 755 mmHg 72%
    19:00 +1°C° 0 mm 6 mps 755 mmHg 72%
    20:00 +1°C° 0 mm 6 mps 755 mmHg 72%
    21:00 +1°C° 0 mm 6 mps 755 mmHg 73%
    22:00 0°C° 0 mm 7 mps 755 mmHg 74%
    23:00 0°C° 0 mm 7 mps 755 mmHg 75%

    26 November, Sunday

    Time Temperature Precipitation Wind Pressure Humidity
    00:00 0°C° 0 mm 7 mps 756 mmHg 76%
    01:00 +2°C° 0.1 mm 7 mps 756 mmHg 77%
    02:00 +2°C° 0.1 mm 6 mps 756 mmHg 79%
    03:00 +3°C° 0.1 mm 6 mps 756 mmHg 80%
    04:00 +2°C° 0 mm 6 mps 756 mmHg 81%
    05:00 +2°C° 0 mm 6 mps 756 mmHg 82%
    06:00 +2°C° 0 mm 5 mps 757 mmHg 83%
    07:00 +2°C° 0.1 mm 5 mps 757 mmHg 83%
    08:00 +2°C° 0.1 mm 5 mps 758 mmHg 82%
    09:00 +2°C° 0.1 mm 5 mps 758 mmHg 82%
    10:00 +3°C° 0.1 mm 5 mps 758 mmHg 78%
    11:00 +3°C° 0.1 mm 6 mps 758 mmHg 74%
    12:00 +4°C° 0.1 mm 6 mps 759 mmHg 70%
    13:00 +5°C° 0 mm 5 mps 759 mmHg 71%
    14:00 +5°C° 0 mm 5 mps 759 mmHg 72%
    15:00 +4°C° 0 mm 4 mps 759 mmHg 73%
    16:00 +4°C° 0 mm 4 mps 759 mmHg 76%
    17:00 +3°C° 0 mm 4 mps 759 mmHg 78%
    18:00 +3°C° 0 mm 4 mps 760 mmHg 80%
    19:00 +3°C° 0 mm 4 mps 760 mmHg 81%
    20:00 +3°C° 0 mm 4 mps 760 mmHg 81%
    21:00 +1°C° 0 mm 4 mps 760 mmHg 81%
    22:00 +1°C° 0 mm 4 mps 760 mmHg 82%
    23:00 +1°C° 0 mm 4 mps 760 mmHg 84%

    27 November, Monday

    Time Temperature Precipitation Wind Pressure Humidity
    00:00 +1°C° 0 mm 4 mps 760 mmHg 85%
    01:00 +1°C° 0 mm 4 mps 759 mmHg 85%
    02:00 +1°C° 0 mm 4 mps 759 mmHg 85%
    03:00 +1°C° 0 mm 4 mps 759 mmHg 85%
    04:00 +1°C° 0 mm 4 mps 758 mmHg 85%
    05:00 +1°C° 0 mm 5 mps 757 mmHg 85%
    06:00 +1°C° 0 mm 5 mps 756 mmHg 84%
    07:00 +2°C° 0.3 mm 5 mps 755 mmHg 85%
    08:00 +3°C° 0.3 mm 6 mps 754 mmHg 85%
    09:00 +4°C° 0.3 mm 7 mps 753 mmHg 85%
    10:00 +4°C° 0.8 mm 7 mps 752 mmHg 84%
    11:00 +4°C° 0.8 mm 8 mps 751 mmHg 84%
    12:00 +5°C° 0.8 mm 8 mps 750 mmHg 83%
    13:00 +5°C° 0.6 mm 8 mps 749 mmHg 84%
    14:00 +5°C° 0.6 mm 8 mps 748 mmHg 85%
    15:00 +5°C° 0.6 mm 8 mps 747 mmHg 86%
    16:00 +4°C° 1.3 mm 7 mps 746 mmHg 86%
    17:00 +4°C° 1.3 mm 6 mps 745 mmHg 86%
    18:00 +3°C° 1.3 mm 5 mps 744 mmHg 86%
    19:00 +4°C° 0.6 mm 4 mps 744 mmHg 85%
    20:00 +3°C° 0.6 mm 4 mps 744 mmHg 84%
    21:00 +3°C° 0.6 mm 3 mps 743 mmHg 82%
    22:00 +2°C° 0 mm 3 mps 743 mmHg 83%
    23:00 +2°C° 0 mm 3 mps 743 mmHg 84%
    Show more